Regional Weather Roundup
Issued by NWS

Home | Current Version | Previous Version | Graphics & Text | Print | Product List | Glossary On
Versions: 1 2 3 4 5 6 7 8 9 10 11 12 13 14 15 16 17 18 19 20 21 22 23 24 25 26 27 28 29 30 31 32 33 34 35 36 37 38 39 40 41 42 43 44 45 46 47 48 49 50
813
ASUS43 KFSD 210302
RWRSD

WEATHER ROUNDUP FOR SOUTH DAKOTA
NATIONAL WEATHER SERVICE SIOUX FALLS SD
1000 PM CDT SUN AUG 20 2017

NOTE: "FAIR" INDICATES FEW OR NO CLOUDS BELOW 12,000 FEET WITH NO
SIGNIFICANT WEATHER AND/OR OBSTRUCTIONS TO VISIBILITY.


SDZ001>005-009-010-012>017-210400-
NORTHWEST AND NORTH CENTRAL SOUTH DAKOTA

CITY           SKY/WX    TMP DP  RH WIND       PRES   REMARKS
BUFFALO          N/A     69  46  43 E16       29.95R
FAITH            N/A     65  46  50 E14       30.02R
MOBRIDGE       CLOUDY    63  54  72 E9        30.02R
$$

SDZ012>016-024>037-041>051-057-063-072>074-210400-
SOUTHWEST AND SOUTH CENTRAL SOUTH DAKOTA

CITY           SKY/WX    TMP DP  RH WIND       PRES   REMARKS
RAPID CTY ARPT CLEAR     70  53  54 SE13      30.01R
PIERRE         CLEAR     63  49  60 E8        30.01R
CUSTER         PTCLDY    66  48  52 SE9G17    30.14R
ELLSWORTH AFB  CLEAR     73  53  50 E12       30.00R
PHILIP         CLEAR     68  50  52 E10       30.00R
PINE RIDGE     CLEAR     69  56  62 E12       30.02R
SPEARFISH      FAIR      73  52  46 E17G24    30.00R
WINNER         FAIR      69  62  78 E6        30.01R
$$

SDZ004>011-016>023-039-040-210400-
NORTHEAST SOUTH DAKOTA

CITY           SKY/WX    TMP DP  RH WIND       PRES   REMARKS
ABERDEEN       PTCLDY    58  56  93 N7        30.04S
WATERTOWN      CLOUDY    58  55  90 N5        30.05R
BROOKINGS      PTCLDY    65  58  78 E6        30.04R
SISSETON         N/A     62  60  93 N3        30.02S
$$

SDZ017-020-022-023-036>040-048>070-210400-
SOUTHEAST SOUTH DAKOTA

CITY           SKY/WX    TMP DP  RH WIND       PRES   REMARKS
SIOUX FALLS    MOCLDY    71  64  78 E8        30.01R
HURON          CLEAR     64  58  80 NE8       30.02R
CHAMBERLAIN    MOCLDY    69  61  75 NE8       30.00R
MITCHELL       CLOUDY    70  59  68 E8        30.00R
YANKTON        CLEAR     74  71  91 NE8       29.98
$$

ABBREVIATIONS USED IN REMARKS
   TC - TEMPERATURE IN CELSIUS
  WCI - WIND CHILL INDEX
   HX - HEAT INDEX
  VSB - VISIBILITY





USA.gov is the U.S. government's official web portal to all federal, state and local government web resources and services.